Location: Namasale
(1.4869°N, 32.6231°E)
Time: 05:47:01
(UTC+00:00)

Daily predictions for brighter satellites

Satellite Brightness Start Highest point End
(mag) Time Altitude Azimuth Time Altitude Azimuth Time Altitude Azimuth
ARIANE 5 R/B 4.5 00:45:19 75° S 00:45:19 75° S 09:21:20 10° E
ARIANE 5 R/B 4.5 01:20:37 13° ESE 01:20:37 13° ESE 01:21:41 10° ESE
Cosmos 1844 4.2 01:44:16 53° N 01:44:16 53° N 01:48:37 10° NNE
ARIANE 5 DEB (SYLDA) 4.4 01:48:52 62° SW 01:50:04 74° S 01:54:28 10° E
Ariane H10+ 3.7 01:45:34 42° W 01:51:36 74° N 01:57:51 10° ENE
Delta 198 4.4 01:56:51 72° WSW 01:57:41 89° NNW 02:04:33 10° ENE
Cosmos 2058 Rocket 4.3 02:00:10 34° N 02:00:10 34° N 02:02:42 10° N
Cosmos 2315 Rocket 4.3 01:54:04 20° S 01:58:30 65° E 02:04:43 10° NNE
FUSE 4.4 02:02:21 47° SSE 02:02:21 47° SSE 02:06:26 10° SE
ADEOS 3.8 01:57:28 10° N 02:01:46 57° NNW 02:01:46 57° NNW
FENGYUN 3A 4.0 01:59:17 10° NNE 02:04:34 61° ESE 02:07:54 23° S
Cosmos 2278 Rocket 4.0 02:03:30 10° SSE 02:08:15 28° ESE 02:12:59 10° NE
GPS 2-12 Rocket1 3.4 02:09:23 56° NNW 02:09:23 56° NNW 02:14:04 10° ENE
SWIFT 2.2 02:16:53 75° SSE 02:16:53 75° SSE 02:21:01 10° ENE
ALOS 2.1 02:14:33 10° NNE 02:19:12 90° NE 02:21:11 35° SSW
Cosmos 1455 4.2 02:19:44 10° SSE 02:23:03 28° E 02:26:22 10° NNE
Cosmos 1758 Rocket 4.1 02:20:43 10° NNW 02:23:50 40° NW 02:23:50 40° NW
CZ-4B R/B 3.2 02:22:02 10° NNE 02:26:24 71° ESE 02:29:41 16° S
Cosmos 1844 Rocket 4.3 02:29:33 17° NW 02:29:33 17° NW 02:31:44 10° NNW
H-2A R/B 4.2 02:24:54 10° NE 02:28:13 28° ESE 02:31:34 10° SSE
ERBS 3.1 02:26:18 11° NNW 02:29:16 50° ENE 02:32:29 10° SE
Meteor PRIRODA 4.1 02:27:48 10° NNE 02:31:28 60° ESE 02:34:46 13° S
Meteor 2-1 Rocket 4.5 02:27:31 10° S 02:33:10 72° E 02:38:54 10° N
ATLAS 2AS CENTAUR R/B 3.9 02:26:26 10° S 02:33:24 45° ESE 02:40:48 10° NE
ASTRO E2 4.1 02:39:35 20° SSW 02:41:28 29° SSE 02:44:57 10° E
Centaur Rocket 4.0 02:39:54 31° WSW 02:42:11 89° SSE 02:55:19 10° ENE
Palapa B4 Rocket 3.8 02:42:02 24° SW 02:44:12 40° SSE 02:47:49 10° E
Cosmos 1603 3.6 02:41:18 10° NNW 02:46:54 64° WSW 02:52:28 10° S
Cosmos 1825 Rocket 4.1 02:43:08 10° NNW 02:47:00 33° W 02:49:23 19° SW
METEOR-M 4.5 02:48:08 10° N 02:53:08 42° WNW 02:58:10 10° SSW
Cosmos 1953 Rocket 3.8 02:49:32 10° NNW 02:53:48 47° W 02:58:04 10° SSW
Cosmos 1400 Rocket 2.8 02:51:04 10° S 02:55:06 83° E 02:59:03 10° N
Meteor 1-31 Rocket 4.1 02:52:19 10° NNW 02:55:11 20° WNW 02:55:17 20° W
ARIANE 5 R/B 3.9 02:49:24 13° W 02:57:41 51° N 03:01:31 10° ENE
TSX-5 4.1 02:56:12 17° SW 02:59:08 42° WNW 03:02:28 10° N
Okean O Rocket 4.0 02:55:51 10° NE 02:59:27 24° ESE 03:03:02 10° SSE
Cosmos 1484 Rocket 4.4 02:57:07 10° NW 02:59:12 16° WNW 02:59:12 16° WNW
Ariane H10+ 3.8 02:55:09 19° W 03:00:04 71° S 03:08:19 10° E
Cosmos 1174 4.0 03:00:06 23° WSW 03:01:23 33° WNW 03:04:30 10° N
Lacrosse 5 rocket 1.7 03:02:00 15° SW 03:05:21 50° WNW 03:09:43 10° NNE
Ariane H10 3.6 03:03:14 16° WSW 03:05:31 37° S 03:08:58 10° ESE
Cosmos 1048 Rocket 3.9 03:02:00 10° NNW 03:07:08 66° WSW 03:12:22 10° S
ARIANE 5 DEB (SYLDA) 3.4 03:01:30 14° W 03:07:56 84° N 03:11:36 10° E
CZ-4B R/B 2.3 03:05:15 10° SSW 03:08:14 28° WSW 03:11:10 10° NW
Aureole 2 Rocket 2.4 03:07:44 10° S 03:10:16 55° ESE 03:12:52 10° NNE
ARIANE 5 R/B 1.6 03:09:19 18° WSW 03:10:34 51° S 03:13:40 10° E
DELTA 2 R/B (1) 4.2 03:06:41 15° WSW 03:11:01 41° NW 03:16:15 10° NNE
ARIANE 5 DEB (SYLDA) 3.6 03:09:04 14° W 03:12:05 88° S 03:21:46 10° E
PSLV R/B 3.7 03:08:22 10° N 03:12:06 62° WNW 03:15:47 10° SSW
Cosmos-2242 3.3 03:08:00 10° S 03:12:17 72° E 03:16:35 10° N
Cosmos 1943 3.5 03:07:43 10° NW 03:12:57 41° WSW 03:18:14 10° S
SEDSat Delta rocket 4.1 03:09:17 12° WSW 03:15:37 84° NNW 03:22:22 10° NE
Cosmos 1315 Rocket 4.4 03:12:23 10° SSE 03:16:11 40° E 03:20:00 10° NNE
H-2A R/B 2.9 03:14:54 10° NNE 03:18:46 80° E 03:22:35 10° S
ASC 2 Rocket 3.3 03:16:42 10° WNW 03:20:50 61° SSW 03:26:12 10° SE
PAYLOAD B 4.3 03:16:04 10° NNE 03:21:34 88° ESE 03:27:07 10° SSW
CZ-4B DEB 4.2 03:17:05 10° N 03:22:34 72° WNW 03:28:05 10° SSW
ARIANE 5 R/B 2.1 03:19:21 10° W 03:28:11 68° S 03:30:40 10° ESE
Cosmos 1892 2.7 03:25:51 10° N 03:29:38 89° NE 03:33:26 10° S
Envisat 3.6 03:25:27 10° NNE 03:30:26 61° ESE 03:35:27 10° S
ARIANE 3 DEB 4.0 03:27:22 10° W 03:36:39 69° N 03:40:40 10° E
ARIANE 5 R/B 4.1 02:53:30 10° W 03:41:07 87° N 03:45:39 10° E
ARIANE 5 R/B 3.6 03:40:23 10° W 04:20:51 69° S 04:25:19 10° ESE
ARIANE 5 R/B 3.9 03:42:53 10° W 04:21:48 86° N 04:27:01 10° E
